,,,PA_Meas_PMT16A,,PR_Meas_QMR101_102,,RH_Meas_QMH101,,SR_Meas_QMS101,,TA_Meas_QMH101,,GenWind,,GenWind,
date,time,status,PA,status,PR,status,RH,status,SR,status,TA,status,DirAvg,status,SpdAvg,
2008-05-17, 00:00:04,VALID,1006.54,VALID,0,VALID,92.6146,VALID,0,VALID,25.7304,VALID,13,VALID,0,
2008-05-17, 00:01:04,VALID,1006.53,VALID,0,VALID,92.6756,VALID,0,VALID,25.7304,VALID,13,VALID,0.386328,
2008-05-17, 00:02:04,VALID,1006.53,VALID,0,VALID,92.7367,VALID,0,VALID,25.7109,VALID,13,VALID,0.00195313,
2008-05-17, 00:03:04,VALID,1006.53,VALID,0,VALID,92.6604,VALID,0,VALID,25.6895,VALID,13,VALID,0.000390625,
2008-05-17, 00:04:04,VALID,1006.55,VALID,0,VALID,92.6833,VALID,0,VALID,25.7304,VALID,13,VALID,0.206641,
2008-05-17, 00:05:04,VALID,1006.55,VALID,0,VALID,92.668,VALID,0,VALID,25.7304,VALID,13,VALID,0,
2008-05-17, 00:06:04,VALID,1006.6,VALID,0,VALID,92.6299,VALID,0,VALID,25.7304,VALID,13,VALID,0.319922,
2008-05-17, 00:07:04,VALID,1006.6,VALID,0,VALID,92.5765,VALID,0,VALID,25.7304,VALID,13,VALID,0.363672,
2008-05-17, 00:08:04,VALID,1006.57,VALID,0,VALID,92.4697,VALID,0,VALID,25.7285,VALID,3,VALID,0.593359,
2008-05-17, 00:09:04,VALID,1006.57,VALID,0,VALID,92.401,VALID,0,VALID,25.748,VALID,360,VALID,0.5375,
2008-05-17, 00:10:04,VALID,1006.56,VALID,0,VALID,92.0424,VALID,0,VALID,25.7889,VALID,350,VALID,0.564062,
2008-05-17, 00:11:04,VALID,1006.54,VALID,0,VALID,91.9433,VALID,0,VALID,25.8278,VALID,350,VALID,0.255078,
2008-05-17, 00:12:04,VALID,1006.56,VALID,0,VALID,91.928,VALID,0,VALID,25.8668,VALID,350,VALID,0.348828,
2008-05-17, 00:13:04,VALID,1006.54,VALID,0,VALID,92.0501,VALID,0,VALID,25.8668,VALID,350,VALID,0.0703125,
2008-05-17, 00:14:04,VALID,1006.53,VALID,0,VALID,92.0501,VALID,0,VALID,25.8863,VALID,350,VALID,0,
2008-05-17, 00:15:04,VALID,1006.51,VALID,0,VALID,91.9814,VALID,0,VALID,25.8668,VALID,350,VALID,0,
2008-05-17, 00:16:04,VALID,1006.52,VALID,0,VALID,92.0577,VALID,0,VALID,25.8668,VALID,350,VALID,0.0960938,
2008-05-17, 00:17:04,VALID,1006.52,VALID,0,VALID,92.1264,VALID,0,VALID,25.8668,VALID,350,VALID,0,
2008-05-17, 00:18:04,VALID,1006.5,VALID,0,VALID,92.1111,VALID,0,VALID,25.8473,VALID,350,VALID,0,
2008-05-17, 00:19:04,VALID,1006.52,VALID,0,VALID,92.1187,VALID,0,VALID,25.8278,VALID,350,VALID,0,
2008-05-17, 00:20:04,VALID,1006.51,VALID,0,VALID,92.1569,VALID,0,VALID,25.8083,VALID,350,VALID,0,
2008-05-17, 00:21:04,VALID,1006.49,VALID,0,VALID,92.2103,VALID,0,VALID,25.7694,VALID,350,VALID,0,
2008-05-17, 00:22:04,VALID,1006.48,VALID,0,VALID,92.3781,VALID,0,VALID,25.7499,VALID,350,VALID,0,
2008-05-17, 00:23:04,VALID,1006.47,VALID,0,VALID,92.5154,VALID,0,VALID,25.7304,VALID,350,VALID,0,
2008-05-17, 00:24:04,VALID,1006.46,VALID,0,VALID,92.5383,VALID,0,VALID,25.7304,VALID,350,VALID,0,
2008-05-17, 00:25:04,VALID,1006.44,VALID,0,VALID,92.5993,VALID,0,VALID,25.7109,VALID,350,VALID,0,
2008-05-17, 00:26:04,VALID,1006.43,VALID,0,VALID,92.7443,VALID,0,VALID,25.6895,VALID,350,VALID,0,
2008-05-17, 00:27:04,VALID,1006.41,VALID,0,VALID,92.7672,VALID,0,VALID,25.6915,VALID,350,VALID,0,
2008-05-17, 00:28:04,VALID,1006.41,VALID,0,VALID,92.7824,VALID,0,VALID,25.672,VALID,350,VALID,0,
2008-05-17, 00:29:04,VALID,1006.37,VALID,0,VALID,92.935,VALID,0,VALID,25.672,VALID,350,VALID,0,
2008-05-17, 00:30:04,VALID,1006.37,VALID,0,VALID,93.0113,VALID,0,VALID,25.6934,VALID,350,VALID,0,
2008-05-17, 00:31:04,VALID,1006.38,VALID,0,VALID,93.141,VALID,0,VALID,25.6915,VALID,350,VALID,0,
2008-05-17, 00:32:04,VALID,1006.38,VALID,0,VALID,93.2478,VALID,0,VALID,25.6915,VALID,350,VALID,0,
2008-05-17, 00:33:04,VALID,1006.36,VALID,0,VALID,93.347,VALID,0,VALID,25.6915,VALID,350,VALID,0,
2008-05-17, 00:34:04,VALID,1006.34,VALID,0,VALID,93.2325,VALID,0,VALID,25.6525,VALID,350,VALID,0,
2008-05-17, 00:35:04,VALID,1006.32,VALID,0,VALID,93.2097,VALID,0,VALID,25.672,VALID,350,VALID,0,
2008-05-17, 00:36:04,VALID,1006.32,VALID,0,VALID,93.1868,VALID,0,VALID,25.6525,VALID,350,VALID,0,
2008-05-17, 00:37:04,VALID,1006.32,VALID,0,VALID,93.1639,VALID,0,VALID,25.633,VALID,350,VALID,0,
2008-05-17, 00:38:04,VALID,1006.35,VALID,0,VALID,93.1715,VALID,0,VALID,25.6136,VALID,350,VALID,0,
2008-05-17, 00:39:04,VALID,1006.35,VALID,0,VALID,93.1563,VALID,0,VALID,25.5921,VALID,5,VALID,0.0425781,
2008-05-17, 00:40:04,VALID,1006.35,VALID,0,VALID,93.1791,VALID,0,VALID,25.5727,VALID,48,VALID,0.263281,
2008-05-17, 00:41:04,VALID,1006.39,VALID,0,VALID,93.2249,VALID,0,VALID,25.5746,VALID,48,VALID,0.00195313,
2008-05-17, 00:42:04,VALID,1006.35,VALID,0,VALID,93.3165,VALID,0,VALID,25.5746,VALID,48,VALID,0.0125,
2008-05-17, 00:43:04,VALID,1006.36,VALID,0,VALID,93.3394,VALID,0,VALID,25.5551,VALID,48,VALID,0.0382813,
2008-05-17, 00:44:04,VALID,1006.35,VALID,0,VALID,93.4233,VALID,0,VALID,25.5551,VALID,48,VALID,0,
2008-05-17, 00:45:04,VALID,1006.33,VALID,0,VALID,93.4919,VALID,0,VALID,25.5551,VALID,48,VALID,0,
2008-05-17, 00:46:04,VALID,1006.32,VALID,0,VALID,93.4919,VALID,0,VALID,25.5746,VALID,48,VALID,0,
2008-05-17, 00:47:04,VALID,1006.29,VALID,0,VALID,93.4843,VALID,0,VALID,25.5337,VALID,48,VALID,0,
2008-05-17, 00:48:04,VALID,1006.29,VALID,0,VALID,93.4996,VALID,0,VALID,25.5746,VALID,48,VALID,0,
2008-05-17, 00:49:04,VALID,1006.25,VALID,0,VALID,93.5072,VALID,0.100563,VALID,25.5532,VALID,48,VALID,0,
2008-05-17, 00:50:04,VALID,1006.2,VALID,0,VALID,93.5301,VALID,0,VALID,25.5746,VALID,48,VALID,0,
2008-05-17, 00:51:04,VALID,1006.19,VALID,0,VALID,93.5911,VALID,0,VALID,25.5746,VALID,48,VALID,0,
2008-05-17, 00:52:04,VALID,1006.18,VALID,0,VALID,93.6369,VALID,0,VALID,25.5941,VALID,48,VALID,0,
2008-05-17, 00:53:04,VALID,1006.15,VALID,0,VALID,93.6292,VALID,0,VALID,25.5941,VALID,48,VALID,0,
2008-05-17, 00:54:04,VALID,1006.1,VALID,0,VALID,93.614,VALID,0,VALID,25.5941,VALID,48,VALID,0,
2008-05-17, 00:55:04,VALID,1006.09,VALID,0,VALID,93.5835,VALID,0,VALID,25.5941,VALID,48,VALID,0,
2008-05-17, 00:56:04,VALID,1006.06,VALID,0,VALID,93.5224,VALID,0,VALID,25.6136,VALID,48,VALID,0,
2008-05-17, 00:57:04,VALID,1006.05,VALID,0,VALID,93.4309,VALID,0,VALID,25.5941,VALID,48,VALID,0,
2008-05-17, 00:58:04,VALID,1006.04,VALID,0,VALID,93.4919,VALID,0,VALID,25.6155,VALID,48,VALID,0,
2008-05-17, 00:59:04,VALID,1006,VALID,0,VALID,93.4996,VALID,0,VALID,25.5941,VALID,48,VALID,0,
2008-05-17, 01:00:04,VALID,1005.98,VALID,0,VALID,93.553,VALID,0,VALID,25.5941,VALID,48,VALID,0,
2008-05-17, 01:01:04,VALID,1005.94,VALID,0,VALID,93.5301,VALID,0,VALID,25.5941,VALID,48,VALID,0,
2008-05-17, 01:02:04,VALID,1005.88,VALID,0,VALID,93.5072,VALID,0,VALID,25.6136,VALID,47,VALID,0,
2008-05-17, 01:03:04,VALID,1005.86,VALID,0,VALID,93.4309,VALID,0,VALID,25.6136,VALID,38,VALID,0,
2008-05-17, 01:04:04,VALID,1005.86,VALID,0,VALID,93.4233,VALID,0,VALID,25.5941,VALID,38,VALID,0,
2008-05-17, 01:05:04,VALID,1005.8,VALID,0,VALID,93.4233,VALID,0,VALID,25.5941,VALID,68,VALID,0.541406,
2008-05-17, 01:06:04,VALID,1005.8,VALID,0,VALID,93.4233,VALID,0,VALID,25.596,VALID,68,VALID,0.330859,
2008-05-17, 01:07:04,VALID,1005.76,VALID,0,VALID,93.4309,VALID,0,VALID,25.5746,VALID,68,VALID,0.374219,
2008-05-17, 01:08:04,VALID,1005.72,VALID,0,VALID,93.3928,VALID,0,VALID,25.5765,VALID,44,VALID,0.629297,
2008-05-17, 01:09:04,VALID,1005.7,VALID,0,VALID,93.408,VALID,0,VALID,25.5551,VALID,43,VALID,0.641406,
2008-05-17, 01:10:04,VALID,1005.68,VALID,0,VALID,93.3928,VALID,0,VALID,25.5357,VALID,37,VALID,0.607031,
2008-05-17, 01:11:04,VALID,1005.68,VALID,0,VALID,93.4538,VALID,0,VALID,25.5376,VALID,37,VALID,0.545703,
2008-05-17, 01:12:04,VALID,1005.6,VALID,0,VALID,93.5606,VALID,0,VALID,25.5162,VALID,17,VALID,0.419922,
2008-05-17, 01:13:04,VALID,1005.59,VALID,0,VALID,93.6521,VALID,0,VALID,25.5162,VALID,17,VALID,0.230859,
2008-05-17, 01:14:04,VALID,1005.56,VALID,0,VALID,93.553,VALID,0,VALID,25.5357,VALID,17,VALID,0.249609,
2008-05-17, 01:15:04,VALID,1005.55,VALID,0,VALID,93.4462,VALID,0,VALID,25.5571,VALID,17,VALID,0.166406,
2008-05-17, 01:16:04,VALID,1005.52,VALID,0,VALID,93.3699,VALID,0,VALID,25.5746,VALID,17,VALID,0.053125,
2008-05-17, 01:17:04,VALID,1005.5,VALID,0,VALID,93.5148,VALID,0,VALID,25.5746,VALID,17,VALID,0.114063,
2008-05-17, 01:18:04,VALID,1005.49,VALID,0,VALID,93.5072,VALID,0,VALID,25.5746,VALID,166,VALID,0.616016,
2008-05-17, 01:19:04,VALID,1005.49,VALID,0,VALID,93.5682,VALID,0,VALID,25.5746,VALID,166,VALID,0.269531,
2008-05-17, 01:20:04,VALID,1005.46,VALID,0,VALID,93.6064,VALID,0,VALID,25.5746,VALID,166,VALID,0,
2008-05-17, 01:21:04,VALID,1005.44,VALID,0,VALID,93.6598,VALID,0,VALID,25.5765,VALID,166,VALID,0,
2008-05-17, 01:22:04,VALID,1005.41,VALID,0,VALID,93.7437,VALID,0,VALID,25.5551,VALID,166,VALID,0,
2008-05-17, 01:23:04,VALID,1005.36,VALID,0,VALID,93.7589,VALID,0,VALID,25.5551,VALID,72,VALID,0.478906,
2008-05-17, 01:24:04,VALID,1005.34,VALID,0,VALID,93.7513,VALID,0,VALID,25.5551,VALID,56,VALID,0.555078,
2008-05-17, 01:25:04,VALID,1005.31,VALID,0,VALID,93.6826,VALID,0,VALID,25.5551,VALID,56,VALID,0.383984,
2008-05-17, 01:26:04,VALID,1005.29,VALID,0,VALID,93.614,VALID,0,VALID,25.4967,VALID,56,VALID,0.223828,
2008-05-17, 01:27:04,VALID,1005.25,VALID,0,VALID,93.675,VALID,0,VALID,25.4967,VALID,56,VALID,0.141797,
2008-05-17, 01:28:04,VALID,1005.26,VALID,0,VALID,93.6369,VALID,0,VALID,25.4772,VALID,56,VALID,0.0550781,
2008-05-17, 01:29:04,VALID,1005.23,VALID,0,VALID,93.6445,VALID,0,VALID,25.4558,VALID,56,VALID,0.0347656,
2008-05-17, 01:30:04,VALID,1005.22,VALID,0,VALID,93.5453,VALID,0,VALID,25.4772,VALID,56,VALID,0.280859,
2008-05-17, 01:31:04,VALID,1005.22,VALID,0,VALID,93.5911,VALID,0,VALID,25.4383,VALID,56,VALID,0.236719,
2008-05-17, 01:32:04,VALID,1005.22,VALID,0,VALID,93.6292,VALID,0,VALID,25.4383,VALID,56,VALID,0.214844,
2008-05-17, 01:33:04,VALID,1005.24,VALID,0,VALID,93.7208,VALID,0,VALID,25.4188,VALID,56,VALID,0.221484,
2008-05-17, 01:34:04,VALID,1005.25,VALID,0,VALID,93.7666,VALID,0,VALID,25.4188,VALID,56,VALID,0.363281,
2008-05-17, 01:35:04,VALID,1005.24,VALID,0,VALID,93.8505,VALID,0,VALID,25.4188,VALID,56,VALID,0.323828,
2008-05-17, 01:36:04,VALID,1005.26,VALID,0,VALID,93.8963,VALID,0,VALID,25.4188,VALID,56,VALID,0.245703,
2008-05-17, 01:37:04,VALID,1005.27,VALID,0,VALID,93.8886,VALID,0,VALID,25.3993,VALID,56,VALID,0.207031,
2008-05-17, 01:38:04,VALID,1005.3,VALID,0,VALID,93.881,VALID,0,VALID,25.3798,VALID,56,VALID,0.00351562,
2008-05-17, 01:39:04,VALID,1005.32,VALID,0,VALID,93.9039,VALID,0,VALID,25.3993,VALID,56,VALID,0.132031,
2008-05-17, 01:40:04,VALID,1005.35,VALID,0,VALID,93.9039,VALID,0,VALID,25.3584,VALID,56,VALID,0.219922,
2008-05-17, 01:41:04,VALID,1005.36,VALID,0,VALID,93.9573,VALID,0,VALID,25.3604,VALID,56,VALID,0.269531,
2008-05-17, 01:42:04,VALID,1005.36,VALID,0,VALID,94.0107,VALID,0,VALID,25.3604,VALID,58,VALID,0.300781,
2008-05-17, 01:43:04,VALID,1005.39,VALID,0,VALID,94.0565,VALID,0,VALID,25.3604,VALID,58,VALID,0.213672,
2008-05-17, 01:44:04,VALID,1005.39,VALID,0,VALID,94.0336,VALID,0,VALID,25.3409,VALID,75,VALID,0.507422,
2008-05-17, 01:45:04,VALID,1005.4,VALID,0,VALID,94.0565,VALID,0,VALID,25.3214,VALID,75,VALID,0.483203,
2008-05-17, 01:46:04,VALID,1005.41,VALID,0,VALID,94.087,VALID,0,VALID,25.3214,VALID,75,VALID,0.420312,
2008-05-17, 01:47:04,VALID,1005.42,VALID,0,VALID,94.1328,VALID,0,VALID,25.3,VALID,75,VALID,0.487891,
2008-05-17, 01:48:04,VALID,1005.42,VALID,0,VALID,94.1862,VALID,0,VALID,25.3409,VALID,76,VALID,0.402734,
2008-05-17, 01:49:04,VALID,1005.43,VALID,0,VALID,94.2167,VALID,0,VALID,25.3604,VALID,76,VALID,0.213672,
2008-05-17, 01:50:04,VALID,1005.4,VALID,0,VALID,94.1862,VALID,0,VALID,25.3195,VALID,76,VALID,0.289453,
2008-05-17, 01:51:04,VALID,1005.42,VALID,0,VALID,94.1556,VALID,0,VALID,25.3604,VALID,76,VALID,0.318359,
2008-05-17, 01:52:04,VALID,1005.43,VALID,0,VALID,94.0488,VALID,0,VALID,25.3409,VALID,76,VALID,0.187891,
2008-05-17, 01:53:04,VALID,1005.45,VALID,0,VALID,93.9878,VALID,0,VALID,25.3195,VALID,75,VALID,0.447656,
2008-05-17, 01:54:04,VALID,1005.45,VALID,0,VALID,94.0183,VALID,0,VALID,25.3409,VALID,65,VALID,0.237891,
2008-05-17, 01:55:04,VALID,1005.48,VALID,0,VALID,94.087,VALID,0,VALID,25.3019,VALID,65,VALID,0.307813,
2008-05-17, 01:56:04,VALID,1005.46,VALID,0,VALID,94.1099,VALID,0,VALID,25.3214,VALID,65,VALID,0.383594,
2008-05-17, 01:57:04,VALID,1005.48,VALID,0,VALID,94.1175,VALID,0,VALID,25.3214,VALID,65,VALID,0.357422,
2008-05-17, 01:58:04,VALID,1005.46,VALID,0,VALID,94.1328,VALID,0,VALID,25.2806,VALID,64,VALID,0.353516,
2008-05-17, 01:59:04,VALID,1005.44,VALID,0,VALID,94.1099,VALID,0.100563,VALID,25.3019,VALID,27,VALID,0.6125,
2008-05-17, 02:00:04,VALID,1005.42,VALID,0,VALID,94.2167,VALID,0,VALID,25.3019,VALID,19,VALID,0.502344,
2008-05-17, 02:01:04,VALID,1005.4,VALID,0,VALID,94.209,VALID,0,VALID,25.3214,VALID,19,VALID,0.307422,
2008-05-17, 02:02:04,VALID,1005.41,VALID,0,VALID,94.2396,VALID,0,VALID,25.3623,VALID,19,VALID,0.335938,
2008-05-17, 02:03:04,VALID,1005.41,VALID,0,VALID,94.1556,VALID,0,VALID,25.3195,VALID,19,VALID,0.182422,
2008-05-17, 02:04:04,VALID,1005.44,VALID,0,VALID,94.1251,VALID,0,VALID,25.3604,VALID,19,VALID,0.00664063,
2008-05-17, 02:05:04,VALID,1005.45,VALID,0,VALID,94.0488,VALID,0,VALID,25.3798,VALID,19,VALID,0.19375,
2008-05-17, 02:06:04,VALID,1005.47,VALID,0,VALID,94.0336,VALID,0,VALID,25.3584,VALID,19,VALID,0.216016,
2008-05-17, 02:07:04,VALID,1005.48,VALID,0,VALID,94.0412,VALID,0,VALID,25.3798,VALID,20,VALID,0.417188,
2008-05-17, 02:08:04,VALID,1005.49,VALID,0,VALID,94.0259,VALID,0,VALID,25.3798,VALID,20,VALID,0.424219,
2008-05-17, 02:09:04,VALID,1005.5,VALID,0,VALID,93.9649,VALID,0,VALID,25.3584,VALID,20,VALID,0.536719,
2008-05-17, 02:10:04,VALID,1005.5,VALID,0,VALID,93.9344,VALID,0,VALID,25.3584,VALID,20,VALID,0.153125,
2008-05-17, 02:11:04,VALID,1005.49,VALID,0,VALID,93.8886,VALID,0,VALID,25.3993,VALID,20,VALID,0.182812,
2008-05-17, 02:12:04,VALID,1005.52,VALID,0,VALID,93.7818,VALID,0,VALID,25.3584,VALID,23,VALID,0.497656,
2008-05-17, 02:13:04,VALID,1005.5,VALID,0,VALID,93.7437,VALID,0,VALID,25.3974,VALID,38,VALID,0.879687,
2008-05-17, 02:14:04,VALID,1005.49,VALID,0,VALID,93.5758,VALID,0,VALID,25.4577,VALID,43,VALID,1.04492,
2008-05-17, 02:15:04,VALID,1005.45,VALID,0,VALID,93.2631,VALID,0,VALID,25.4967,VALID,72,VALID,0.751953,
2008-05-17, 02:16:04,VALID,1005.48,VALID,0,VALID,93.08,VALID,0,VALID,25.5162,VALID,77,VALID,0.344922,
2008-05-17, 02:17:04,VALID,1005.45,VALID,0,VALID,92.8969,VALID,0,VALID,25.5746,VALID,77,VALID,0.208984,
2008-05-17, 02:18:04,VALID,1005.45,VALID,0,VALID,92.5841,VALID,0,VALID,25.5746,VALID,77,VALID,0.296094,
2008-05-17, 02:19:04,VALID,1005.44,VALID,0,VALID,92.2179,VALID,0,VALID,25.5941,VALID,104,VALID,0.387109,
2008-05-17, 02:20:04,VALID,1005.46,VALID,0,VALID,91.6915,VALID,0,VALID,25.6136,VALID,49,VALID,0.564062,
2008-05-17, 02:21:04,VALID,1005.43,VALID,0,VALID,91.1117,VALID,0,VALID,25.633,VALID,54,VALID,0.621484,
2008-05-17, 02:22:04,VALID,1005.42,VALID,0,VALID,90.6158,VALID,0,VALID,25.6311,VALID,27,VALID,0.875,
2008-05-17, 02:23:04,VALID,1005.41,VALID,0,VALID,90.2878,VALID,0,VALID,25.6915,VALID,26,VALID,0.676562,
2008-05-17, 02:24:04,VALID,1005.39,VALID,0,VALID,90.0208,VALID,0,VALID,25.7713,VALID,30,VALID,0.910547,
2008-05-17, 02:25:04,VALID,1005.42,VALID,0,VALID,89.6546,VALID,0,VALID,25.7499,VALID,23,VALID,0.968359,
2008-05-17, 02:26:04,VALID,1005.4,VALID,0,VALID,89.7538,VALID,0,VALID,25.8083,VALID,25,VALID,0.419531,
2008-05-17, 02:27:04,VALID,1005.39,VALID,0,VALID,89.5325,VALID,0,VALID,25.8298,VALID,45,VALID,0.430859,
2008-05-17, 02:28:04,VALID,1005.44,VALID,0,VALID,89.441,VALID,0,VALID,25.8083,VALID,45,VALID,0.174609,
2008-05-17, 02:29:04,VALID,1005.41,VALID,0,VALID,89.5249,VALID,0,VALID,25.8083,VALID,44,VALID,0.369141,
2008-05-17, 02:30:04,VALID,1005.44,VALID,0,VALID,89.6622,VALID,0,VALID,25.8278,VALID,44,VALID,0.253516,
2008-05-17, 02:31:04,VALID,1005.44,VALID,0,VALID,89.7004,VALID,0,VALID,25.8083,VALID,36,VALID,0.623438,
2008-05-17, 02:32:04,VALID,1005.42,VALID,0,VALID,89.8758,VALID,0,VALID,25.8083,VALID,30,VALID,0.280469,
2008-05-17, 02:33:04,VALID,1005.44,VALID,0,VALID,90.0513,VALID,0,VALID,25.8083,VALID,14,VALID,0.515234,
2008-05-17, 02:34:04,VALID,1005.46,VALID,0,VALID,90.3793,VALID,0,VALID,25.7889,VALID,11,VALID,0.158984,
2008-05-17, 02:35:04,VALID,1005.45,VALID,0,VALID,90.593,VALID,0,VALID,25.7694,VALID,12,VALID,0.114063,
2008-05-17, 02:36:04,VALID,1005.47,VALID,0,VALID,90.86,VALID,0,VALID,25.7499,VALID,11,VALID,0,
2008-05-17, 02:37:04,VALID,1005.47,VALID,0,VALID,90.9057,VALID,0,VALID,25.7109,VALID,11,VALID,0,
2008-05-17, 02:38:04,VALID,1005.49,VALID,0,VALID,90.7379,VALID,0,VALID,25.6915,VALID,14,VALID,0.588672,
2008-05-17, 02:39:04,VALID,1005.47,VALID,0,VALID,90.8523,VALID,0,VALID,25.633,VALID,27,VALID,0.196875,
2008-05-17, 02:40:04,VALID,1005.45,VALID,0,VALID,91.1804,VALID,0.100563,VALID,25.6136,VALID,18,VALID,0.297266,
2008-05-17, 02:41:04,VALID,1005.46,VALID,0,VALID,90.86,VALID,0,VALID,25.5746,VALID,18,VALID,0.4125,
2008-05-17, 02:42:04,VALID,1005.46,VALID,0,VALID,90.6235,VALID,0,VALID,25.5746,VALID,354,VALID,0.233203,
2008-05-17, 02:43:04,VALID,1005.46,VALID,0,VALID,90.3946,VALID,0.100563,VALID,25.5941,VALID,14,VALID,0.711328,
2008-05-17, 02:44:04,VALID,1005.47,VALID,0,VALID,89.9674,VALID,0,VALID,25.6136,VALID,22,VALID,0.501172,
2008-05-17, 02:45:04,VALID,1005.48,VALID,0,VALID,89.6851,VALID,0,VALID,25.633,VALID,10,VALID,0.519922,
2008-05-17, 02:46:04,VALID,1005.47,VALID,0,VALID,89.5707,VALID,0,VALID,25.672,VALID,21,VALID,0.750781,
2008-05-17, 02:47:04,VALID,1005.44,VALID,0,VALID,89.5554,VALID,0.100563,VALID,25.6915,VALID,24,VALID,0.360156,
2008-05-17, 02:48:04,VALID,1005.44,VALID,0,VALID,89.5859,VALID,0,VALID,25.6895,VALID,23,VALID,0.239844,
2008-05-17, 02:49:04,VALID,1005.43,VALID,0,VALID,89.5173,VALID,0,VALID,25.6895,VALID,25,VALID,0.356641,
2008-05-17, 02:50:04,VALID,1005.47,VALID,0,VALID,89.3723,VALID,0,VALID,25.7304,VALID,41,VALID,0.273047,
2008-05-17, 02:51:04,VALID,1005.44,VALID,0,VALID,88.8459,VALID,0,VALID,25.709,VALID,77,VALID,0.891016,
2008-05-17, 02:52:04,VALID,1005.44,VALID,0,VALID,88.8459,VALID,0,VALID,25.7889,VALID,98,VALID,0.342969,
2008-05-17, 02:53:04,VALID,1005.45,VALID,0,VALID,88.9222,VALID,0,VALID,25.8083,VALID,95,VALID,0.0523437,
2008-05-17, 02:54:04,VALID,1005.47,VALID,0,VALID,88.5179,VALID,0,VALID,25.8064,VALID,83,VALID,0.74375,
2008-05-17, 02:55:04,VALID,1005.49,VALID,0,VALID,88.6018,VALID,0,VALID,25.8278,VALID,76,VALID,0.0640625,
2008-05-17, 02:56:04,VALID,1005.49,VALID,0,VALID,88.701,VALID,0,VALID,25.8278,VALID,76,VALID,0.251953,
2008-05-17, 02:57:04,VALID,1005.52,VALID,0,VALID,88.6323,VALID,0,VALID,25.8278,VALID,71,VALID,0.328906,
2008-05-17, 02:58:04,VALID,1005.49,VALID,0,VALID,88.5789,VALID,0,VALID,25.8473,VALID,26,VALID,0.61875,
2008-05-17, 02:59:04,VALID,1005.5,VALID,0,VALID,88.6552,VALID,0,VALID,25.8278,VALID,45,VALID,0.13125,
2008-05-17, 03:00:04,VALID,1005.48,VALID,0,VALID,88.762,VALID,0,VALID,25.8278,VALID,45,VALID,0.379687,
2008-05-17, 03:01:04,VALID,1005.49,VALID,0,VALID,89.0138,VALID,0,VALID,25.8083,VALID,30,VALID,0.275,
2008-05-17, 03:02:04,VALID,1005.46,VALID,0,VALID,89.0061,VALID,0,VALID,25.7674,VALID,30,VALID,0.090625,
2008-05-17, 03:03:04,VALID,1005.45,VALID,0,VALID,89.174,VALID,0,VALID,25.7694,VALID,30,VALID,0.116016,
2008-05-17, 03:04:04,VALID,1005.44,VALID,0,VALID,89.4257,VALID,0,VALID,25.7674,VALID,30,VALID,0.354688,
2008-05-17, 03:05:04,VALID,1005.42,VALID,0,VALID,89.3952,VALID,0,VALID,25.7694,VALID,30,VALID,0.386328,
2008-05-17, 03:06:04,VALID,1005.44,VALID,0,VALID,89.4334,VALID,0,VALID,25.748,VALID,30,VALID,0.128125,
2008-05-17, 03:07:04,VALID,1005.42,VALID,0,VALID,89.4028,VALID,0,VALID,25.7499,VALID,24,VALID,0.249219,
2008-05-17, 03:08:04,VALID,1005.39,VALID,0,VALID,89.4563,VALID,0,VALID,25.748,VALID,24,VALID,0,
2008-05-17, 03:09:04,VALID,1005.38,VALID,0,VALID,89.6165,VALID,0,VALID,25.7499,VALID,24,VALID,0,
2008-05-17, 03:10:04,VALID,1005.37,VALID,0,VALID,89.5783,VALID,0,VALID,25.7285,VALID,24,VALID,0.034375,
2008-05-17, 03:11:04,VALID,1005.35,VALID,0,VALID,89.6851,VALID,0,VALID,25.7109,VALID,24,VALID,0.185156,
2008-05-17, 03:12:04,VALID,1005.35,VALID,0,VALID,89.6927,VALID,0,VALID,25.6915,VALID,24,VALID,0.227344,
2008-05-17, 03:13:04,VALID,1005.34,VALID,0,VALID,89.8224,VALID,0.100563,VALID,25.6506,VALID,24,VALID,0.177344,
2008-05-17, 03:14:04,VALID,1005.32,VALID,0,VALID,90.0589,VALID,0,VALID,25.672,VALID,24,VALID,0.135547,
2008-05-17, 03:15:04,VALID,1005.32,VALID,0,VALID,90.2344,VALID,0,VALID,25.6311,VALID,24,VALID,0.270312,
2008-05-17, 03:16:04,VALID,1005.31,VALID,0,VALID,90.387,VALID,0,VALID,25.633,VALID,24,VALID,0,
2008-05-17, 03:17:04,VALID,1005.32,VALID,0,VALID,90.4862,VALID,0,VALID,25.5727,VALID,24,VALID,0,
2008-05-17, 03:18:04,VALID,1005.32,VALID,0,VALID,90.5624,VALID,0.100563,VALID,25.5551,VALID,24,VALID,0,
2008-05-17, 03:19:04,VALID,1005.34,VALID,0,VALID,90.776,VALID,0,VALID,25.5162,VALID,25,VALID,0.548828,
2008-05-17, 03:20:04,VALID,1005.34,VALID,0,VALID,90.9286,VALID,0,VALID,25.4967,VALID,25,VALID,0.538281,
2008-05-17, 03:21:04,VALID,1005.35,VALID,0,VALID,91.0888,VALID,0,VALID,25.4772,VALID,25,VALID,0.519922,
2008-05-17, 03:22:04,VALID,1005.36,VALID,0,VALID,91.188,VALID,0,VALID,25.4383,VALID,29,VALID,0.442578,
2008-05-17, 03:23:04,VALID,1005.36,VALID,0,VALID,91.3558,VALID,0,VALID,25.4169,VALID,33,VALID,0.467187,
2008-05-17, 03:24:04,VALID,1005.35,VALID,0,VALID,91.5313,VALID,0,VALID,25.4188,VALID,33,VALID,0.249219,
2008-05-17, 03:25:04,VALID,1005.37,VALID,0,VALID,91.5695,VALID,0,VALID,25.4188,VALID,33,VALID,0.421484,
2008-05-17, 03:26:04,VALID,1005.38,VALID,0,VALID,91.6,VALID,0,VALID,25.3993,VALID,30,VALID,0.514453,
2008-05-17, 03:27:04,VALID,1005.37,VALID,0,VALID,91.6686,VALID,0,VALID,25.3798,VALID,30,VALID,0,
2008-05-17, 03:28:04,VALID,1005.39,VALID,0,VALID,91.8136,VALID,0,VALID,25.3798,VALID,30,VALID,0.344531,
2008-05-17, 03:29:04,VALID,1005.39,VALID,0,VALID,91.9433,VALID,0,VALID,25.3798,VALID,30,VALID,0.5125,
2008-05-17, 03:30:04,VALID,1005.39,VALID,0,VALID,92.0272,VALID,0,VALID,25.3604,VALID,30,VALID,0.412891,
2008-05-17, 03:31:04,VALID,1005.4,VALID,0,VALID,92.1492,VALID,0,VALID,25.3604,VALID,30,VALID,0.387109,
2008-05-17, 03:32:04,VALID,1005.42,VALID,0,VALID,92.2027,VALID,0,VALID,25.3214,VALID,30,VALID,0.428125,
2008-05-17, 03:33:04,VALID,1005.43,VALID,0,VALID,92.2866,VALID,0,VALID,25.3214,VALID,30,VALID,0.314063,
2008-05-17, 03:34:04,VALID,1005.44,VALID,0,VALID,92.3705,VALID,0,VALID,25.3,VALID,30,VALID,0.163281,
2008-05-17, 03:35:04,VALID,1005.42,VALID,0,VALID,92.4544,VALID,0,VALID,25.3214,VALID,30,VALID,0.00507812,
2008-05-17, 03:36:04,VALID,1005.39,VALID,0,VALID,92.5841,VALID,0,VALID,25.3233,VALID,30,VALID,0.355469,
2008-05-17, 03:37:04,VALID,1005.39,VALID,0,VALID,92.6146,VALID,0,VALID,25.3019,VALID,30,VALID,0.375781,
2008-05-17, 03:38:04,VALID,1005.37,VALID,0,VALID,92.7062,VALID,0,VALID,25.2825,VALID,30,VALID,0.205469,
2008-05-17, 03:39:04,VALID,1005.36,VALID,0,VALID,92.7062,VALID,0,VALID,25.2825,VALID,30,VALID,0.294141,
2008-05-17, 03:40:04,VALID,1005.35,VALID,0,VALID,92.7367,VALID,0,VALID,25.263,VALID,30,VALID,0.116797,
2008-05-17, 03:41:04,VALID,1005.35,VALID,0,VALID,92.7901,VALID,0,VALID,25.263,VALID,30,VALID,0.191016,
2008-05-17, 03:42:04,VALID,1005.37,VALID,0,VALID,92.8511,VALID,0,VALID,25.2221,VALID,30,VALID,0.360938,
2008-05-17, 03:43:04,VALID,1005.35,VALID,0,VALID,92.9732,VALID,0,VALID,25.224,VALID,49,VALID,0.389844,
2008-05-17, 03:44:04,VALID,1005.35,VALID,0,VALID,93.0113,VALID,0,VALID,25.224,VALID,91,VALID,0.433594,
2008-05-17, 03:45:04,VALID,1005.35,VALID,0,VALID,92.9732,VALID,0,VALID,25.224,VALID,87,VALID,0.836328,
2008-05-17, 03:46:04,VALID,1005.36,VALID,0,VALID,92.8816,VALID,0,VALID,25.2435,VALID,86,VALID,0.666016,
2008-05-17, 03:47:04,VALID,1005.34,VALID,0,VALID,92.8282,VALID,0,VALID,25.263,VALID,55,VALID,0.503516,
2008-05-17, 03:48:04,VALID,1005.35,VALID,0,VALID,92.6909,VALID,0,VALID,25.2825,VALID,70,VALID,0.823438,
2008-05-17, 03:49:04,VALID,1005.35,VALID,0,VALID,92.4468,VALID,0,VALID,25.3409,VALID,73,VALID,1.14766,